Time,TemperatureF,DewpointF,PressureIn,WindDirection,WindDirectionDegrees,WindSpeedMPH,WindSpeedGustMPH,Humidity,HourlyPrecipIn,Conditions,Clouds,dailyrainin,SoftwareType,DateUTC
2013-06-29 00:10:00,71.1,67.0,29.51,SSW,212,3.0,5.0,87,0.00,,,0.00,weatherlink.com 1.10,2013-06-29 04:10:00,
2013-06-29 00:25:00,71.1,67.0,29.52,SSW,212,1.0,7.0,87,0.00,,,0.00,weatherlink.com 1.10,2013-06-29 04:25:00,
2013-06-29 00:40:00,71.0,67.0,29.51,SE,143,2.0,7.0,87,0.00,,,0.00,weatherlink.com 1.10,2013-06-29 04:40:00,
2013-06-29 00:55:00,71.0,67.0,29.50,South,187,2.0,6.0,87,0.00,,,0.00,weatherlink.com 1.10,2013-06-29 04:55:00,
2013-06-29 01:11:00,71.1,67.0,29.49,SW,225,2.0,5.0,87,0.00,,,0.00,weatherlink.com 1.10,2013-06-29 05:11:00,
2013-06-29 01:26:00,71.2,67.0,29.50,SW,215,4.0,6.0,87,0.00,,,0.00,weatherlink.com 1.10,2013-06-29 05:26:00,
2013-06-29 01:42:00,71.3,67.0,29.50,SW,218,2.0,5.0,87,0.00,,,0.00,weatherlink.com 1.10,2013-06-29 05:42:00,
2013-06-29 01:56:00,71.4,67.0,29.49,South,170,2.0,6.0,87,0.00,,,0.00,weatherlink.com 1.10,2013-06-29 05:56:00,
2013-06-29 02:11:00,71.4,67.0,29.49,SE,143,1.0,4.0,87,0.00,,,0.00,weatherlink.com 1.10,2013-06-29 06:11:00,
2013-06-29 02:26:00,71.5,68.0,29.48,SSE,164,0.0,2.0,87,0.00,,,0.00,weatherlink.com 1.10,2013-06-29 06:26:00,
2013-06-29 02:41:00,71.5,68.0,29.49,SSW,212,0.0,2.0,87,0.00,,,0.00,weatherlink.com 1.10,2013-06-29 06:41:00,
2013-06-29 02:59:00,71.5,68.0,29.49,SW,215,1.0,2.0,87,0.00,,,0.00,weatherlink.com 1.10,2013-06-29 06:59:00,
2013-06-29 03:11:00,71.6,68.0,29.49,SSW,202,0.0,3.0,87,0.00,,,0.00,weatherlink.com 1.10,2013-06-29 07:11:00,
2013-06-29 03:26:00,71.6,68.0,29.49,SE,131,0.0,2.0,87,0.00,,,0.00,weatherlink.com 1.10,2013-06-29 07:26:00,
2013-06-29 03:41:00,71.6,68.0,29.49,SE,143,0.0,3.0,87,0.00,,,0.00,weatherlink.com 1.10,2013-06-29 07:41:00,
2013-06-29 03:56:00,71.5,68.0,29.49,ESE,122,3.0,3.0,87,0.00,,,0.00,weatherlink.com 1.10,2013-06-29 07:56:00,
2013-06-29 04:11:00,71.4,67.0,29.49,SE,139,2.0,5.0,87,0.00,,,0.00,weatherlink.com 1.10,2013-06-29 08:11:00,
2013-06-29 04:26:00,71.4,67.0,29.49,SSW,212,3.0,5.0,87,0.00,,,0.00,weatherlink.com 1.10,2013-06-29 08:26:00,
2013-06-29 04:41:00,71.4,67.0,29.49,ESE,120,0.0,3.0,87,0.00,,,0.00,weatherlink.com 1.10,2013-06-29 08:41:00,
2013-06-29 04:56:00,71.5,68.0,29.49,SSE,148,0.0,3.0,87,0.00,,,0.00,weatherlink.com 1.10,2013-06-29 08:56:00,
2013-06-29 05:11:00,71.5,68.0,29.50,SW,218,0.0,3.0,87,0.00,,,0.00,weatherlink.com 1.10,2013-06-29 09:11:00,
2013-06-29 05:26:00,71.5,68.0,29.51,SSW,212,2.0,5.0,87,0.00,,,0.00,weatherlink.com 1.10,2013-06-29 09:26:00,
2013-06-29 05:41:00,71.5,67.0,29.52,South,187,2.0,5.0,86,0.00,,,0.00,weatherlink.com 1.10,2013-06-29 09:41:00,
2013-06-29 05:56:00,-999.0,-99.9,29.52,North,-999,-999.0,-999.0,-999,0.00,,,0.00,weatherlink.com 1.10,2013-06-29 09:56:00,
2013-06-29 06:11:00,71.7,68.0,29.52,WSW,255,0.0,5.0,87,0.00,,,0.00,weatherlink.com 1.10,2013-06-29 10:11:00,
2013-06-29 06:26:00,71.8,68.0,29.53,WNW,300,1.0,5.0,87,0.00,,,0.00,weatherlink.com 1.10,2013-06-29 10:26:00,
2013-06-29 06:41:00,71.8,68.0,29.52,South,187,1.0,5.0,87,0.00,,,0.00,weatherlink.com 1.10,2013-06-29 10:41:00,
2013-06-29 06:56:00,71.9,68.0,29.53,SSW,210,2.0,3.0,87,0.00,,,0.00,weatherlink.com 1.10,2013-06-29 10:56:00,
2013-06-29 07:11:00,72.1,68.0,29.53,ENE,67,1.0,4.0,87,0.00,,,0.00,weatherlink.com 1.10,2013-06-29 11:11:00,
2013-06-29 07:26:00,72.9,69.0,29.53,ESE,120,1.0,4.0,86,0.00,,,0.00,weatherlink.com 1.10,2013-06-29 11:26:00,
2013-06-29 07:41:00,74.4,70.0,29.53,ENE,75,1.0,4.0,86,0.00,,,0.00,weatherlink.com 1.10,2013-06-29 11:41:00,
2013-06-29 07:56:00,75.3,71.0,29.52,SE,135,3.0,6.0,85,0.00,,,0.00,weatherlink.com 1.10,2013-06-29 11:56:00,
2013-06-29 08:11:00,75.6,71.0,29.52,West,278,0.0,5.0,84,0.00,,,0.00,weatherlink.com 1.10,2013-06-29 12:11:00,
2013-06-29 08:26:00,75.4,71.0,29.54,WSW,240,1.0,5.0,85,0.00,,,0.00,weatherlink.com 1.10,2013-06-29 12:26:00,
2013-06-29 08:41:00,75.4,70.0,29.54,West,270,1.0,5.0,84,0.00,,,0.00,weatherlink.com 1.10,2013-06-29 12:41:00,
2013-06-29 08:56:00,75.9,71.0,29.55,SW,226,0.0,4.0,85,0.00,,,0.00,weatherlink.com 1.10,2013-06-29 12:56:00,
2013-06-29 09:11:00,76.2,71.0,29.55,West,274,2.0,7.0,84,0.00,,,0.00,weatherlink.com 1.10,2013-06-29 13:11:00,
2013-06-29 09:26:00,76.6,71.0,29.54,ESE,106,3.0,5.0,83,0.00,,,0.00,weatherlink.com 1.10,2013-06-29 13:26:00,
2013-06-29 09:41:00,77.5,72.0,29.54,East,91,2.0,4.0,82,0.00,,,0.00,weatherlink.com 1.10,2013-06-29 13:41:00,
2013-06-29 09:56:00,77.4,71.0,29.54,SSW,203,3.0,7.0,81,0.00,,,0.00,weatherlink.com 1.10,2013-06-29 13:56:00,
2013-06-29 10:11:00,77.7,71.0,29.55,WSW,253,3.0,6.0,79,0.00,,,0.00,weatherlink.com 1.10,2013-06-29 14:11:00,
2013-06-29 10:26:00,77.1,71.0,29.55,South,191,1.0,7.0,80,0.00,,,0.00,weatherlink.com 1.10,2013-06-29 14:26:00,
2013-06-29 10:41:00,77.2,71.0,29.55,South,183,2.0,5.0,81,0.00,,,0.00,weatherlink.com 1.10,2013-06-29 14:41:00,
2013-06-29 10:56:00,77.0,71.0,29.55,ESE,112,0.0,8.0,81,0.00,,,0.00,weatherlink.com 1.10,2013-06-29 14:56:00,
2013-06-29 11:11:00,77.1,71.0,29.54,West,261,1.0,4.0,81,0.00,,,0.00,weatherlink.com 1.10,2013-06-29 15:11:00,
2013-06-29 11:26:00,76.7,71.0,29.55,SSW,195,4.0,7.0,82,0.00,,,0.00,weatherlink.com 1.10,2013-06-29 15:26:00,
2013-06-29 11:41:00,76.7,71.0,29.55,WSW,250,1.0,6.0,82,0.00,,,0.00,weatherlink.com 1.10,2013-06-29 15:41:00,
2013-06-29 11:56:00,77.2,71.0,29.55,South,170,3.0,8.0,80,0.00,,,0.00,weatherlink.com 1.10,2013-06-29 15:56:00,
2013-06-29 12:11:00,77.6,71.0,29.56,West,273,1.0,7.0,81,0.00,,,0.00,weatherlink.com 1.10,2013-06-29 16:11:00,
2013-06-29 12:27:00,78.5,72.0,29.56,South,176,5.0,8.0,79,0.00,,,0.00,weatherlink.com 1.10,2013-06-29 16:27:00,
2013-06-29 12:42:00,79.5,73.0,29.55,WSW,255,2.0,9.0,79,0.00,,,0.00,weatherlink.com 1.10,2013-06-29 16:42:00,
2013-06-29 12:57:00,80.5,72.0,29.56,SW,236,6.0,10.0,74,0.00,,,0.00,weatherlink.com 1.10,2013-06-29 16:57:00,
2013-06-29 13:12:00,80.7,71.0,29.55,West,280,1.0,7.0,73,0.00,,,0.00,weatherlink.com 1.10,2013-06-29 17:12:00,
2013-06-29 13:27:00,81.9,71.0,29.55,West,264,4.0,6.0,70,0.00,,,0.00,weatherlink.com 1.10,2013-06-29 17:27:00,
2013-06-29 13:42:00,81.4,71.0,29.55,WSW,252,3.0,11.0,70,0.00,,,0.00,weatherlink.com 1.10,2013-06-29 17:42:00,
2013-06-29 13:57:00,82.5,70.0,29.54,East,96,6.0,10.0,67,0.00,,,0.00,weatherlink.com 1.10,2013-06-29 17:57:00,
2013-06-29 14:12:00,83.2,71.0,29.54,WNW,285,0.0,8.0,67,0.00,,,0.00,weatherlink.com 1.10,2013-06-29 18:12:00,
2013-06-29 14:27:00,83.4,70.0,29.54,SW,231,2.0,7.0,65,0.00,,,0.00,weatherlink.com 1.10,2013-06-29 18:27:00,
2013-06-29 14:42:00,83.5,70.0,29.54,SE,136,3.0,9.0,64,0.00,,,0.00,weatherlink.com 1.10,2013-06-29 18:42:00,
2013-06-29 14:57:00,83.3,71.0,29.54,WNW,294,2.0,7.0,66,0.00,,,0.00,weatherlink.com 1.10,2013-06-29 18:57:00,
2013-06-29 15:12:00,83.7,72.0,29.54,ESE,109,1.0,7.0,67,0.00,,,0.00,weatherlink.com 1.10,2013-06-29 19:12:00,
2013-06-29 15:27:00,84.2,71.0,29.55,SSE,160,2.0,10.0,64,0.00,,,0.00,weatherlink.com 1.10,2013-06-29 19:27:00,
2013-06-29 15:42:00,84.5,70.0,29.54,SSW,204,2.0,9.0,63,0.00,,,0.00,weatherlink.com 1.10,2013-06-29 19:42:00,
2013-06-29 15:57:00,83.2,69.0,29.55,South,189,3.0,10.0,63,0.00,,,0.00,weatherlink.com 1.10,2013-06-29 19:57:00,
2013-06-29 16:12:00,83.5,69.0,29.55,SW,232,2.0,10.0,61,0.00,,,0.00,weatherlink.com 1.10,2013-06-29 20:12:00,
2013-06-29 16:27:00,84.5,70.0,29.55,SW,225,5.0,9.0,61,0.00,,,0.00,weatherlink.com 1.10,2013-06-29 20:27:00,
2013-06-29 16:42:00,82.9,70.0,29.56,SW,232,1.0,8.0,66,0.00,,,0.00,weatherlink.com 1.10,2013-06-29 20:42:00,
2013-06-29 16:57:00,83.2,70.0,29.56,WNW,302,4.0,10.0,64,0.00,,,0.00,weatherlink.com 1.10,2013-06-29 20:57:00,
2013-06-29 17:12:00,82.9,69.0,29.56,South,184,4.0,14.0,64,0.00,,,0.00,weatherlink.com 1.10,2013-06-29 21:12:00,
2013-06-29 17:27:00,83.0,70.0,29.56,South,173,5.0,11.0,64,0.00,,,0.00,weatherlink.com 1.10,2013-06-29 21:27:00,
2013-06-29 17:42:00,82.5,70.0,29.56,ESE,110,1.0,14.0,65,0.00,,,0.00,weatherlink.com 1.10,2013-06-29 21:42:00,
2013-06-29 17:57:00,81.9,69.0,29.57,South,173,3.0,12.0,66,0.00,,,0.00,weatherlink.com 1.10,2013-06-29 21:57:00,
2013-06-29 18:12:00,81.2,69.0,29.57,WNW,285,4.0,9.0,66,0.00,,,0.00,weatherlink.com 1.10,2013-06-29 22:12:00,
2013-06-29 18:27:00,80.3,68.0,29.58,SE,139,7.0,9.0,67,0.00,,,0.00,weatherlink.com 1.10,2013-06-29 22:27:00,
2013-06-29 18:42:00,80.0,69.0,29.58,SSW,201,1.0,11.0,68,0.00,,,0.00,weatherlink.com 1.10,2013-06-29 22:42:00,
2013-06-29 18:57:00,79.5,68.0,29.59,SSW,200,5.0,10.0,69,0.00,,,0.00,weatherlink.com 1.10,2013-06-29 22:57:00,
2013-06-29 19:12:00,79.0,69.0,29.59,SW,232,2.0,6.0,71,0.00,,,0.00,weatherlink.com 1.10,2013-06-29 23:12:00,
2013-06-29 19:27:00,78.5,68.0,29.59,SSW,203,4.0,7.0,71,0.00,,,0.00,weatherlink.com 1.10,2013-06-29 23:27:00,
2013-06-29 19:42:00,78.0,68.0,29.60,ESE,120,2.0,7.0,72,0.00,,,0.00,weatherlink.com 1.10,2013-06-29 23:42:00,
2013-06-29 19:58:00,77.5,68.0,29.60,SSE,151,2.0,9.0,73,0.00,,,0.00,weatherlink.com 1.10,2013-06-29 23:58:00,
2013-06-29 20:12:00,76.9,68.0,29.61,SSE,167,1.0,7.0,73,0.00,,,0.00,weatherlink.com 1.10,2013-06-30 00:12:00,
2013-06-29 20:27:00,76.4,68.0,29.61,South,186,0.0,6.0,74,0.00,,,0.00,weatherlink.com 1.10,2013-06-30 00:27:00,
2013-06-29 20:42:00,75.6,68.0,29.62,SW,224,1.0,4.0,77,0.00,,,0.00,weatherlink.com 1.10,2013-06-30 00:42:00,
2013-06-29 20:57:00,75.1,68.0,29.63,SW,217,0.0,4.0,78,0.00,,,0.00,weatherlink.com 1.10,2013-06-30 00:57:00,
2013-06-29 21:12:00,74.7,68.0,29.64,South,178,1.0,4.0,79,0.00,,,0.00,weatherlink.com 1.10,2013-06-30 01:12:00,
2013-06-29 21:27:00,74.4,68.0,29.64,SW,223,1.0,7.0,80,0.00,,,0.00,weatherlink.com 1.10,2013-06-30 01:27:00,
2013-06-29 21:42:00,74.0,68.0,29.64,WSW,246,1.0,4.0,81,0.00,,,0.00,weatherlink.com 1.10,2013-06-30 01:42:00,
2013-06-29 21:57:00,73.8,68.0,29.65,SSW,195,1.0,6.0,82,0.00,,,0.00,weatherlink.com 1.10,2013-06-30 01:57:00,
2013-06-29 22:12:00,73.4,68.0,29.66,SSW,195,1.0,4.0,82,0.00,,,0.00,weatherlink.com 1.10,2013-06-30 02:12:00,
2013-06-29 22:28:00,73.1,68.0,29.66,SE,142,4.0,7.0,83,0.00,,,0.00,weatherlink.com 1.10,2013-06-30 02:28:00,
2013-06-29 22:43:00,72.8,68.0,29.66,SSE,165,3.0,7.0,84,0.00,,,0.00,weatherlink.com 1.10,2013-06-30 02:43:00,
2013-06-29 22:58:00,72.5,68.0,29.67,SSW,207,1.0,3.0,85,0.00,,,0.00,weatherlink.com 1.10,2013-06-30 02:58:00,
2013-06-29 23:13:00,72.1,68.0,29.68,South,191,1.0,4.0,86,0.00,,,0.00,weatherlink.com 1.10,2013-06-30 03:13:00,
2013-06-29 23:28:00,71.8,68.0,29.68,SSE,155,3.0,4.0,87,0.00,,,0.00,weatherlink.com 1.10,2013-06-30 03:28:00,
2013-06-29 23:43:00,71.6,68.0,29.68,West,269,0.0,4.0,87,0.00,,,0.00,weatherlink.com 1.10,2013-06-30 03:43:00,
2013-06-29 23:58:00,71.3,68.0,29.69,SSW,201,0.0,6.0,88,0.00,,,0.00,weatherlink.com 1.10,2013-06-30 03:58:00,